TimeEST,TemperatureF,Dew PointF,Humidity,Sea Level PressureIn,VisibilityMPH,Wind Direction,Wind SpeedMPH,Gust SpeedMPH,PrecipitationIn,Events,Conditions,WindDirDegrees,DateUTC
12:15 AM,30.2,20.7,68,30.44,10.0,Calm,Calm,-,N/A,,Overcast,0,2013-11-29 05:15:00
12:35 AM,28.0,20.3,73,30.44,10.0,Calm,Calm,-,N/A,,Scattered Clouds,0,2013-11-29 05:35:00
12:55 AM,28.6,20.1,71,30.44,10.0,Calm,Calm,-,N/A,,Clear,0,2013-11-29 05:55:00
1:15 AM,26.2,20.1,78,30.45,10.0,Calm,Calm,-,N/A,,Clear,0,2013-11-29 06:15:00
1:35 AM,25.7,20.3,80,30.45,10.0,Calm,Calm,-,N/A,,Clear,0,2013-11-29 06:35:00
1:55 AM,25.2,19.9,81,30.46,10.0,Calm,Calm,-,N/A,,Clear,0,2013-11-29 06:55:00
2:15 AM,24.6,20.1,83,30.47,10.0,Calm,Calm,-,N/A,,Clear,0,2013-11-29 07:15:00
2:35 AM,23.4,19.6,85,30.48,10.0,Calm,Calm,-,N/A,,Clear,0,2013-11-29 07:35:00
2:55 AM,23.5,19.4,84,30.48,10.0,Calm,Calm,-,N/A,,Clear,0,2013-11-29 07:55:00
3:15 AM,22.6,19.2,87,30.49,10.0,Calm,Calm,-,N/A,,Clear,0,2013-11-29 08:15:00
3:35 AM,22.6,19.2,87,30.49,10.0,Calm,Calm,-,N/A,,Clear,0,2013-11-29 08:35:00
3:55 AM,22.5,19.2,87,30.50,10.0,Calm,Calm,-,N/A,,Clear,0,2013-11-29 08:55:00
4:15 AM,21.6,19.2,91,30.50,10.0,Calm,Calm,-,N/A,,Clear,0,2013-11-29 09:15:00
4:35 AM,21.2,18.5,89,30.50,10.0,Calm,Calm,-,N/A,,Clear,0,2013-11-29 09:35:00
4:55 AM,21.2,18.7,90,30.51,10.0,Calm,Calm,-,N/A,,Clear,0,2013-11-29 09:55:00
5:15 AM,20.7,18.3,91,30.51,10.0,Calm,Calm,-,N/A,,Clear,0,2013-11-29 10:15:00
5:35 AM,20.1,17.8,91,30.52,10.0,Calm,Calm,-,N/A,,Clear,0,2013-11-29 10:35:00
5:55 AM,19.4,17.4,92,30.52,10.0,Calm,Calm,-,N/A,,Clear,0,2013-11-29 10:55:00
6:15 AM,19.8,17.6,91,30.53,10.0,Calm,Calm,-,N/A,,Clear,0,2013-11-29 11:15:00
6:35 AM,19.0,17.2,93,30.54,10.0,Calm,Calm,-,N/A,,Clear,0,2013-11-29 11:35:00
6:55 AM,19.2,17.4,93,30.55,10.0,Calm,Calm,-,N/A,,Clear,0,2013-11-29 11:55:00
7:15 AM,18.5,16.5,92,30.56,10.0,Calm,Calm,-,N/A,,Clear,0,2013-11-29 12:15:00
7:35 AM,18.3,16.5,93,30.57,10.0,Calm,Calm,-,N/A,,Clear,0,2013-11-29 12:35:00
7:55 AM,19.0,17.2,93,30.58,10.0,Calm,Calm,-,N/A,,Clear,0,2013-11-29 12:55:00
8:15 AM,20.1,18.3,93,30.59,10.0,Calm,Calm,-,N/A,,Clear,0,2013-11-29 13:15:00
8:35 AM,22.3,19.9,91,30.60,10.0,Calm,Calm,-,N/A,,Clear,0,2013-11-29 13:35:00
8:55 AM,24.3,21.6,89,30.60,10.0,Calm,Calm,-,N/A,,Clear,0,2013-11-29 13:55:00
9:15 AM,26.2,23.0,88,30.60,10.0,Calm,Calm,-,N/A,,Clear,0,2013-11-29 14:15:00
9:35 AM,28.0,21.2,76,30.61,10.0,Calm,Calm,-,N/A,,Clear,0,2013-11-29 14:35:00
9:55 AM,29.1,22.3,76,30.62,10.0,Calm,Calm,-,N/A,,Clear,0,2013-11-29 14:55:00
10:15 AM,31.8,22.8,69,30.62,10.0,Calm,Calm,-,N/A,,Clear,0,2013-11-29 15:15:00
10:35 AM,32.5,22.5,66,30.62,10.0,Calm,Calm,-,N/A,,Clear,0,2013-11-29 15:35:00
10:55 AM,33.4,20.7,59,30.62,10.0,Calm,Calm,-,N/A,,Clear,0,2013-11-29 15:55:00
11:15 AM,34.5,20.7,57,30.61,10.0,Calm,Calm,-,N/A,,Clear,0,2013-11-29 16:15:00
11:35 AM,35.2,21.4,57,30.61,10.0,Calm,Calm,-,N/A,,Clear,0,2013-11-29 16:35:00
11:55 AM,36.3,21.2,54,30.60,10.0,West,3.5,-,N/A,,Clear,270,2013-11-29 16:55:00
12:15 PM,37.9,20.7,50,30.60,10.0,Calm,Calm,-,N/A,,Clear,0,2013-11-29 17:15:00
12:35 PM,38.5,19.9,47,30.60,10.0,Calm,Calm,-,N/A,,Clear,0,2013-11-29 17:35:00
12:55 PM,38.3,20.5,49,30.60,10.0,Calm,Calm,-,N/A,,Clear,0,2013-11-29 17:55:00
1:15 PM,38.7,20.5,48,30.59,10.0,Calm,Calm,-,N/A,,Clear,0,2013-11-29 18:15:00
1:35 PM,39.2,21.0,48,30.59,10.0,Calm,Calm,-,N/A,,Clear,0,2013-11-29 18:35:00
1:55 PM,39.4,21.2,48,30.58,10.0,Calm,Calm,-,N/A,,Clear,0,2013-11-29 18:55:00
2:15 PM,39.6,20.5,46,30.58,10.0,Calm,Calm,-,N/A,,Clear,0,2013-11-29 19:15:00
2:35 PM,39.4,20.5,47,30.57,10.0,WNW,3.5,-,N/A,,Clear,300,2013-11-29 19:35:00
2:55 PM,39.6,20.3,46,30.57,10.0,Calm,Calm,-,N/A,,Clear,0,2013-11-29 19:55:00
3:15 PM,38.8,19.6,46,30.57,10.0,Calm,Calm,-,N/A,,Clear,0,2013-11-29 20:15:00
3:35 PM,39.6,19.8,45,30.57,10.0,Calm,Calm,-,N/A,,Clear,0,2013-11-29 20:35:00
3:55 PM,39.4,19.8,45,30.57,10.0,Calm,Calm,-,N/A,,Clear,0,2013-11-29 20:55:00
4:15 PM,39.2,18.9,44,30.58,10.0,Calm,Calm,-,N/A,,Clear,0,2013-11-29 21:15:00
4:35 PM,37.8,20.3,49,30.58,10.0,Calm,Calm,-,N/A,,Clear,0,2013-11-29 21:35:00
4:55 PM,36.0,21.0,55,30.58,10.0,Calm,Calm,-,N/A,,Clear,0,2013-11-29 21:55:00
5:15 PM,34.0,21.0,59,30.58,10.0,Calm,Calm,-,N/A,,Clear,0,2013-11-29 22:15:00
5:35 PM,32.0,21.7,66,30.59,10.0,Calm,Calm,-,N/A,,Clear,0,2013-11-29 22:35:00
5:55 PM,30.7,23.9,76,30.59,10.0,Calm,Calm,-,N/A,,Clear,0,2013-11-29 22:55:00
6:15 PM,30.0,23.7,77,30.59,10.0,Calm,Calm,-,N/A,,Clear,0,2013-11-29 23:15:00
6:35 PM,29.1,23.0,78,30.59,10.0,Calm,Calm,-,N/A,,Clear,0,2013-11-29 23:35:00
6:55 PM,28.4,23.0,80,30.59,10.0,Calm,Calm,-,N/A,,Clear,0,2013-11-29 23:55:00
7:15 PM,27.7,22.5,81,30.60,10.0,Calm,Calm,-,N/A,,Clear,0,2013-11-30 00:15:00
7:35 PM,27.9,22.1,79,30.60,10.0,Calm,Calm,-,N/A,,Clear,0,2013-11-30 00:35:00
7:55 PM,27.1,22.1,81,30.60,10.0,Calm,Calm,-,N/A,,Clear,0,2013-11-30 00:55:00
8:15 PM,27.0,22.3,83,30.59,10.0,Calm,Calm,-,N/A,,Clear,0,2013-11-30 01:15:00
8:35 PM,25.7,22.1,86,30.59,10.0,Calm,Calm,-,N/A,,Clear,0,2013-11-30 01:35:00
8:55 PM,26.1,22.5,86,30.58,10.0,Calm,Calm,-,N/A,,Clear,0,2013-11-30 01:55:00
9:15 PM,25.3,21.9,87,30.58,10.0,Calm,Calm,-,N/A,,Clear,0,2013-11-30 02:15:00
9:35 PM,25.0,21.4,86,30.58,10.0,Calm,Calm,-,N/A,,Clear,0,2013-11-30 02:35:00
9:55 PM,24.3,21.2,88,30.58,10.0,Calm,Calm,-,N/A,,Clear,0,2013-11-30 02:55:00
10:15 PM,23.7,20.8,89,30.58,10.0,Calm,Calm,-,N/A,,Clear,0,2013-11-30 03:15:00
10:35 PM,23.5,21.0,90,30.57,10.0,Calm,Calm,-,N/A,,Clear,0,2013-11-30 03:35:00
10:55 PM,23.5,21.6,92,30.56,10.0,Calm,Calm,-,N/A,,Clear,0,2013-11-30 03:55:00
11:15 PM,22.8,20.7,91,30.56,10.0,Calm,Calm,-,N/A,,Clear,0,2013-11-30 04:15:00
11:35 PM,22.1,19.9,91,30.56,10.0,Calm,Calm,-,N/A,,Clear,0,2013-11-30 04:35:00
11:55 PM,22.1,20.3,93,30.55,10.0,Calm,Calm,-,N/A,,Clear,0,2013-11-30 04:55:00